Location: Gökben Yaylas?
(36.8988°N, 29.6291°E)
Time: 12:30:56
(UTC+00:00)

Cosmos 2084 Rocket - Pass Details

Date: 15 May 2026
Orbit: 527 x 582 km, 62.8° (Epoch: 9 June)

Event Time Altitude Azimuth Distance (km) Brightness Sun altitude
Rises 18:08:13 0° 332° (NNW) 2,762 8.1 -12.2°
Reaches altitude 10° 18:10:29 10° 338° (NNW) 1,871 7.0 -12.6°
Maximum altitude 18:14:36 49° 54° (NE) 747 3.8 -13.3°
Enters shadow 18:17:03 22° 120° (ESE) 1,274 4.5 -13.6°
